Вернуться в каталог

STARLINK-33988

АктивенСвязьVLEO
NORAD 63938·PAYLOAD·🇺🇸 United States

Запущен May 13, 2025 с Vandenberg Space Force Base

Loading…

Ближайшие Пролёты (ближайшие 24 часа)

TLE

СвежийSource: CelesTrak SupGP

Эпоха: Sep 14, 2026, 20:44 UTC

1 63938C 25098N   26257.86437500 -.00033262  00000+0 -11565-2 0  2572
2 63938  70.0007 155.9602 0003291 270.7676 218.2996 15.29611899    12

Отслеживайте STARLINK-33988 в реальном времени с AllMySat

Download on the App Store